Powrót do katalogu

COSMOS 1036

AktywnyMilitariaLEO
NORAD 11045·PAYLOAD·🇷🇺 Russia

Wystrzelony Oct 4, 1978 z Plesetsk Cosmodrome

Loading…

Następne Przeloty (najbliższe 24 godziny)

TLE

ŚwieżeSource: Space-Track

Epoka: Sep 14, 2026, 05:13 UTC

1 11045U 78091C   26257.21803785 -.00000001  00000-0  99471-4 0  9998
2 11045  74.0367 183.3902 0024335  18.8032 132.6218 12.50853260189356

Śledź COSMOS 1036 w czasie rzeczywistym z AllMySat

Download on the App Store